892 visiteurs
Prévisions de votre ville :
Vigilance : 21 départements 8 départements Mise à jour le 14/12/2018 à 16:00 - Voir la carte

Paris Roissy CDG (95380) le 14/12/2018 à 16:00 Choisir station

0.9°C 61 % ENE Rafales 11 km/h
Vit. moyenne 4 kmh/h

Relevés météo quotidiens pour la station de :

UTC
S: Synop
M: Metar
Loc T°C
(°C)
Td
(°C)
HR
(%)
Vis
(km)
Néb
(octa)
Vent
(km/h)
Pression
(mb)
Précipitations
(mm)
Temps
              MOY
10 min
DIR RAF 1h MESURE VAR SUR 3h    
S 00 h 01h 11.0 10.2 95 14 /8 6 13 1015.6 +0.5/3h 7.0/6h - 6.0/3h -
S 01 h 02h 10.9 10.1 95 13 /8 6 9 1015.2 +0.1/3h 0.0/1h -
S 02 h 03h 11.0 10.2 95 11 /8 9 19 1015.8 +0.6/3h 0.0/1h
S 03 h 04h 10.9 10.1 95 9 /8 7 15 1016.1 +0.5/3h 0.0/3h
S 04 h 05h 11.4 10.6 95 12 /8 6 11 1017.0 +1.8/3h 0.0/1h -
S 05 h 06h 11.1 10.3 95 11 /8 4 7 1017.1 +1.3/3h 0.0/1h -
S 06 h 07h 11.2 10.6 96 6 /8 4 7 1017.6 +1.5/3h 7.0/12h - 0.0/3h - 6.5/24h -
S 07 h 08h 11.5 10.9 96 17 /8 11 17 1018.2 +1.2/3h 0.4/1h
S 08 h 09h 11.4 10.8 96 13 /8 7 17 1019.1 +2.0/3h 0.0/1h
S 09 h 10h 12.0 11.4 96 19 /8 6 9 1019.3 +1.7/3h 0.4/3h -
S 10 h 11h 12.4 11.6 95 20 /8 7 11 1020.2 +2.0/3h 0.0/1h -
S 11 h 12h 12.4 11.6 95 8 /8 17 24 1020.3 +1.2/3h 0.0/1h
S 12 h 13h 12.5 11.2 92 17 /8 19 28 1020.3 +1.0/3h 0.4/6h
S 13 h 14h 12.5 11.2 92 12 /8 9 15 1020.1 -0.1/3h 0.0/1h -
S 14 h 15h 12.6 11.0 90 20 /8 9 15 1020.0 -0.3/3h 0.0/1h -
S 15 h 16h 12.8 11.0 89 20 /8 13 28 1020.1 -0.2/3h 0.0/3h
S 16 h 17h 12.6 11.2 91 5 /8 13 24 1020.2 +0.1/3h 0.0/1h
S 17 h 18h 12.4 11.3 93 20 /8 7 13 1020.5 +0.5/3h 0.0/1h -
S 18 h 19h 12.2 10.9 92 19 /8 9 13 1020.4 +0.3/3h 0.4/12h -
S 19 h 20h 12.4 10.8 90 20 /8 17 28 1020.5 +0.3/3h 0.0/1h
S 20 h 21h 12.3 10.4 88 20 /8 13 31 1020.7 +0.2/3h 0.0/1h
S 21 h 22h 12.2 10.1 87 20 /8 7 13 1020.2 -0.2/3h 0.0/3h -
S 22 h 23h 12.1 9.3 83 20 /8 11 17 1020.1 -0.4/3h 0.0/1h -
S 23 h 00h 11.9 9.1 83 20 /8 17 33 1019.6 -1.1/3h 0.0/1h
evolution des temperatures
cumul des precipitations
vent moyen et rafales
pression atmospherique

Un tiret (-) signifie que les données ne sont pas disponibles.

Passez la souris sur les pictos temps pour avoir plus de précisions. Passez les flèches sur l'icône de la direction du vent pour voir la direction précise en degrés.

Les données de l'heure en cours sont disponibles à partir de H+15 minutes.


S signifie station Synop, plus complète qu'une station Metar (M). Il y a +1h de différence entre l'heure UTC et l'heure légale en hiver et +2h en été.

Td est la mesure du point de rosée.

HR est l'humidité relative/p>

Vis est la visibilité

Néb est la nébulosité du ciel (couverture nuageuse) exprimée en octas (de 0/8 à 8/8).

Vent moy 10 min donne le vent moyen sur les 10 minutes qui précèdent le relevé.

Vent raf 1h donne la rafale maximale mesurée dans l'heure qui précède le relevé.


Les données les plus anciennes remontent à avril 2014.

Les données présentées sur cette page proviennent des stations météo officielles. Les relevés sont effectués aux normes en vigueur (anémomètre à 10m de haut, thermomètre sous abri normalisé à 2m du sol...)

Météo 60 décline toute responsabilité en cas d'absence de données, d'erreurs, de mauvaise utilisation ou interprétation et n'est pas habilité à fournir des certificats intempéries.